Wind_Speed
18 21 22 23 23 24 24 24 25 22 17 8 8 13 12 11 11 10 10 11 9 8 8 9 11 13 16 26 37 36 33 21
17 20 21 22 25 25 25 25 26 25 22 16 10 12 10 10 12 15 15 15 14 12 12 13 10 10 12 24 22 22 24 21
14 17 20 23 22 23 22 23 23 22 19 16 9 11 7 7 12 15 16 17 17 13 12 11 10 11 11 12 18 23 28 30
9 13 16 17 20 20 21 20 21 21 20 17 15 8 10 10 16 15 17 15 15 15 14 13 12 11 12 13 13 16 18 19
6 7 10 13 14 15 17 17 20 20 20 18 18 14 14 15 16 17 17 14 16 14 14 14 13 12 14 14 13 15 14 17
4 9 11 13 14 16 15 17 18 20 19 17 16 15 15 16 17 20 17 15 14 15 14 14 15 16 15 16 17 16 16 19
5 7 8 12 14 16 15 17 16 17 17 16 16 16 17 18 19 18 20 19 18 15 16 17 16 15 16 19 20 18 17 19
3 8 12 14 16 18 19 19 18 19 19 19 16 16 15 16 17 18 22 21 20 20 21 19 18 19 19 20 23 24 21 20
5 8 11 13 16 19 20 21 20 21 20 19 18 18 17 16 18 18 18 20 21 22 22 22 21 21 20 20 23 25 24 24
5 8 10 13 17 17 17 19 20 20 21 20 19 19 20 19 19 18 19 19 21 21 22 23 22 23 23 23 23 24 26 27
4 6 9 11 12 13 15 17 19 19 19 19 19 19 18 18 17 18 19 19 19 20 22 23 24 23 22 23 23 22 25 26
5 6 8 10 11 13 15 15 16 19 19 19 19 19 18 19 18 20 20 20 21 20 21 23 24 24 23 24 24 25 24 24
5 6 8 10 12 13 14 14 15 16 16 17 17 18 18 19 18 19 19 20 21 22 21 20 22 21 22 23 24 23 25 26
6 6 9 9 10 12 13 13 14 14 15 17 17 18 19 18 19 20 20 20 21 22 21 22 25 24 24 27 25 25 26 27
6 5 6 7 8 10 12 12 13 14 15 15 16 17 17 16 16 19 21 22 23 23 24 24 26 27 27 27 21 23 22 23
6 5 6 5 6 9 10 11 13 14 14 15 15 15 15 15 16 18 20 23 26 27 27 27 28 30 33 33 28 28 27 25
7 6 7 5 8 10 10 12 13 13 14 14 16 15 17 19 20 22 24 25 26 28 30 30 32 36 37 34 32 31 32 33
7 7 6 6 8 9 11 12 12 14 15 16 18 18 21 25 21 21 22 25 25 28 32 32 33 42 42 35 32 32 32 35
9 9 7 7 8 9 11 13 14 15 17 18 19 23 22 21 23 24 23 22 22 26 29 32 34 43 43 39 34 33 32 36
Wind_Direction
48 45 43 41 38 37 35 31 30 30 31 34 32 32 33 30 31 19 8 355 341 330 311 295 282 266 241 234 240 230 249 231
53 47 42 40 39 35 32 29 25 24 21 15 2 2 12 11 7 2 353 349 340 330 318 317 316 284 253 251 241 238 243 244
50 44 42 41 37 33 30 28 25 25 21 9 352 341 347 5 348 349 355 350 344 341 329 317 319 304 287 256 247 248 249 245
56 45 39 35 35 29 27 25 23 21 17 11 6 349 346 348 348 346 347 352 340 337 330 323 314 307 294 288 274 257 253 245
77 61 51 42 38 32 27 24 21 17 15 13 13 4 353 341 336 336 340 351 337 332 327 322 318 310 300 292 287 288 281 268
82 39 35 27 19 18 22 22 19 15 11 11 7 358 348 340 338 340 335 332 328 328 327 325 320 309 302 296 290 279 273 271
52 45 33 28 18 15 12 19 15 10 7 5 5 358 350 345 338 336 334 330 323 322 322 320 314 306 304 302 298 289 279 272
34 32 26 19 15 18 14 11 12 9 9 3 360 355 349 342 341 339 331 328 325 319 322 323 313 305 299 294 288 283 278 271
62 38 27 15 16 15 14 3 10 6 5 357 357 353 353 346 341 335 328 326 321 322 323 317 311 306 299 293 284 280 275 269
58 36 27 21 15 16 9 3 6 3 0 355 356 350 352 347 339 337 332 328 326 324 323 318 316 310 303 298 286 278 274 271
84 44 31 25 19 13 13 9 6 0 360 358 353 352 349 347 344 341 341 338 337 334 325 322 323 316 306 298 291 284 275 268
97 55 42 32 20 17 15 12 8 7 4 359 358 357 354 356 353 352 350 349 349 344 340 334 329 324 315 307 299 290 278 273
91 67 49 34 20 16 14 10 12 9 6 5 6 2 4 5 2 0 357 357 358 355 350 342 337 331 328 319 306 293 282 275
98 70 52 34 19 15 10 7 7 6 8 12 10 9 11 10 11 11 10 7 7 4 360 357 354 350 342 338 321 304 290 280
110 84 66 44 31 26 16 12 11 8 15 14 9 9 4 8 16 20 19 17 15 11 8 4 2 1 0 356 347 344 335 307
113 99 84 54 37 27 25 25 25 22 25 20 14 13 9 12 18 22 23 23 21 17 12 10 10 13 11 12 11 5 6 4
119 111 97 74 47 39 32 30 32 31 34 26 28 23 24 23 25 25 28 25 21 18 16 13 15 18 17 20 22 17 19 25
129 112 109 81 63 50 42 40 42 42 40 33 28 27 29 26 24 29 28 27 24 23 19 15 19 21 18 18 24 25 24 30
126 128 111 87 80 71 59 50 49 45 40 34 31 35 28 24 26 28 29 29 29 25 22 22 22 23 19 20 27 26 26 31
Height
808 805 803 800 798 795 792 789 785 783 781 781 780 779 778 776 776 777 777 776 774 772 771 769 766 765 766 767 770 774 771 772
808 807 805 803 801 799 797 794 791 787 784 782 781 780 781 780 779 778 777 776 774 770 766 765 765 764 763 764 766 764 766 767
809 808 807 805 805 804 802 800 797 793 791 791 789 786 782 780 779 778 776 774 774 772 769 766 766 765 764 763 762 761 761 763
810 809 809 808 805 805 804 803 801 798 794 792 789 787 784 781 779 778 776 773 775 772 770 768 763 764 763 762 761 759 756 754
810 809 809 808 807 806 805 803 802 800 797 794 792 790 787 784 781 778 775 772 774 772 769 766 764 761 759 757 756 756 753 748
811 813 813 813 811 809 806 803 802 801 799 797 794 792 789 784 781 776 775 773 774 771 769 764 760 759 754 755 754 753 752 749
813 814 814 814 812 810 808 804 804 803 801 799 796 792 789 786 784 779 775 771 770 768 766 762 759 756 751 749 749 747 744 741
814 814 814 813 813 809 807 806 804 802 800 800 796 793 790 788 784 778 775 770 767 764 760 755 754 752 749 746 745 743 739 737
814 816 816 816 812 810 808 809 803 802 801 800 796 793 789 785 782 779 775 769 765 759 753 751 749 746 744 741 740 738 734 732
817 819 818 816 814 812 812 810 805 804 802 799 795 793 788 785 782 778 773 768 762 756 752 749 744 739 737 735 734 731 728 724
817 818 818 817 817 816 813 811 808 807 804 801 798 794 790 786 782 777 771 766 761 755 750 746 740 737 735 732 728 723 720 718
816 817 817 818 818 817 815 813 812 808 806 803 799 795 791 785 781 775 770 765 759 755 750 744 740 735 731 726 721 717 713 711
815 816 816 818 819 818 816 815 813 811 809 806 801 797 791 786 782 777 773 766 760 755 752 749 743 736 730 724 718 713 708 704
817 817 817 819 820 819 818 817 814 812 810 805 802 798 792 788 783 778 774 769 763 759 755 749 742 735 728 719 712 705 699 694
815 817 819 821 822 820 819 818 815 812 808 807 805 800 797 792 786 781 776 772 768 763 758 751 743 736 728 720 711 703 694 687
815 817 820 822 823 822 821 819 816 813 811 810 807 803 801 796 790 784 779 775 770 765 759 754 747 739 731 721 712 703 694 685
816 819 820 823 823 822 822 819 816 815 814 813 810 807 803 797 790 785 780 778 775 771 764 758 750 742 734 725 716 708 700 691
816 818 822 823 823 823 822 820 818 817 816 815 811 808 802 796 793 790 787 783 781 775 769 763 754 746 738 730 722 715 708 699
816 819 821 822 823 824 823 821 820 819 817 815 813 809 805 802 799 794 791 789 786 780 775 768 760 750 744 735 726 720 714 705